Sterling, IL

10:44 PM CST on November 18, 2019 (GMT -0600)
Whiteside County-Bittorf

Weather History for KSQI - July, 2019

Change the Weather History Date:

Saturday, July 13, 2019

  Actual Average Record
Temperature  
Mean Temperature 80 °F -  
Max Temperature 91 °F 81 °F 91 °F (2015)
Min Temperature 68 °F 60 °F 51 °F (2002)
Cooling Degree Days 14    
Growing Degree Days 30 (Base 50)    
Moisture  
Dew Point 71 °F    
Average Humidity 76    
Maximum Humidity 93    
Minimum Humidity 57    
Precipitation  
Precipitation 0.00 in - - ()
Sea Level Pressure  
Sea Level Pressure 29.60 in    
Wind  
Wind Speed 3 mph (West)    
Max Wind Speed 10 mph    
Max Gust Speed 17 mph    
Visibility 10 miles    
Events      
Averages and records for this station are not official NWS values.
T = Trace of Precipitation, MM = Missing Value Source: NWS Daily Summary

Daily Weather History Graph

Daily Weather History Graph

Search for Another Location

Airport or City:

Astronomy

Jul. 13, 2019 Rise Set
Actual Time 5:35 AM CDT 8:33 PM CDT
Civil Twilight 5:02 AM CDT 9:06 PM CDT
Nautical Twilight 4:19 AM CDT 9:48 PM CDT
Astronomical Twilight 3:30 AM CDT 10:37 PM CDT
Moon 5:55 PM CDT (7/13) 2:56 AM CDT (7/13)
Length of Visible Light 16h 04m
Length of Day
14h 57m
Waxing Gibbous, 90% of the Moon is Illuminated
Jul 13
Waxing Gibbous
Jul 16
Full
Jul 24
Last Quarter
Jul 31
New
Aug 7
First Quarter

Hourly Weather History & Observations

Time (CDT) Temp. Heat Index Dew Point Humidity Pressure Visibility Wind Dir Wind Speed Gust Speed Precip Events Conditions
12:56 AM 68.0 °F - 64.9 °F 90% 29.55 in 6.0 mi Calm Calm - N/A   Overcast
1:56 AM 68.0 °F - 64.9 °F 90% 29.56 in 10.0 mi Calm Calm - N/A   Overcast
2:56 AM 68.0 °F - 64.9 °F 90% 29.55 in 10.0 mi Calm Calm - N/A   Overcast
3:56 AM 69.1 °F - 64.9 °F 87% 29.56 in 10.0 mi Calm Calm - N/A   Overcast
4:56 AM 68.0 °F - 64.9 °F 90% 29.57 in 10.0 mi WSW 3.5 mph - N/A   Overcast
5:56 AM 68.0 °F - 64.9 °F 90% 29.59 in 10.0 mi Calm Calm - N/A   Overcast
6:56 AM 71.1 °F - 66.9 °F 87% 29.59 in 10.0 mi Calm Calm - N/A   Overcast
7:56 AM 75.0 °F - 68.0 °F 79% 29.60 in 10.0 mi WSW 6.9 mph - N/A   Overcast
8:56 AM 80.1 °F 83.2 °F 70.0 °F 71% 29.62 in 10.0 mi West 10.4 mph - N/A   Overcast
9:56 AM 82.9 °F 87.5 °F 71.1 °F 67% 29.62 in 10.0 mi West 10.4 mph - N/A   Overcast
10:56 AM 84.9 °F 90.7 °F 72.0 °F 65% 29.62 in 10.0 mi WSW 8.1 mph - N/A   Overcast
11:56 AM 88.0 °F 95.6 °F 73.0 °F 61% 29.63 in 10.0 mi West 10.4 mph 17.3 mph N/A   Overcast
12:56 PM 89.1 °F 98.0 °F 73.9 °F 61% 29.63 in 10.0 mi WNW 8.1 mph - N/A   Overcast
1:56 PM 91.0 °F 100.4 °F 73.9 °F 57% 29.60 in 10.0 mi West 3.5 mph - N/A   Overcast
2:56 PM 91.0 °F 101.6 °F 75.0 °F 59% 29.60 in 10.0 mi West 5.8 mph - N/A   Overcast
3:56 PM 90.0 °F 99.0 °F 73.9 °F 59% 29.59 in 10.0 mi WSW 5.8 mph - N/A   Overcast
4:56 PM 90.0 °F 97.9 °F 73.0 °F 57% 29.60 in 10.0 mi NW 4.6 mph - N/A   Overcast
5:56 PM 89.1 °F 98.0 °F 73.9 °F 61% 29.59 in 10.0 mi West 10.4 mph - N/A   Overcast
6:56 PM 88.0 °F 98.5 °F 75.9 °F 67% 29.60 in 10.0 mi WNW 5.8 mph - N/A   Overcast
7:56 PM 84.0 °F 91.2 °F 73.9 °F 72% 29.60 in 10.0 mi WNW 4.6 mph - N/A   Overcast
8:56 PM 79.0 °F - 73.9 °F 84% 29.62 in 9.0 mi Calm Calm - N/A   Overcast
9:56 PM 77.0 °F - 73.0 °F 88% 29.63 in 10.0 mi Calm Calm - N/A   Overcast
10:56 PM 77.0 °F - 73.0 °F 88% 29.65 in 10.0 mi Calm Calm - N/A   Overcast
11:56 PM 73.9 °F - 72.0 °F 93% 29.66 in 10.0 mi Calm Calm - N/A   Overcast